Weather History for Ingleside, TX

Change the Weather History Date:

Saturday, April 12, 2014

  Actual Average Record
Temperature  
Mean Temperature 76 °F -  
Max Temperature 82 °F - - ()
Min Temperature 69 °F - - ()
Cooling Degree Days 10    
Growing Degree Days 26 (Base 50)    
Moisture  
Dew Point 68 °F    
Average Humidity 81    
Maximum Humidity 97    
Minimum Humidity 59    
Precipitation  
Precipitation 0.00 in - - ()
Sea Level Pressure  
Sea Level Pressure 29.93 in    
Wind  
Wind Speed 14 mph (SE)    
Max Wind Speed 29 mph    
Max Gust Speed 37 mph    
Visibility 10 miles    
Events      
T = Trace of Precipitation, MM = Missing Value Source: NWS Daily Summary

Daily Weather History Graph

Daily Weather History Graph

Search for Another Location

Airport:

Trip Planner

Search our weather history database for the weather conditions in past years. The results will help you decide how hot, cold, wet, or windy it might be!

Date:

Astronomy

Apr. 12, 2014 Rise Set
Actual Time 7:07 AM CDT 7:52 PM CDT
Civil Twilight 6:43 AM CDT 8:16 PM CDT
Nautical Twilight 6:15 AM CDT 8:44 PM CDT
Astronomical Twilight 5:46 AM CDT 9:13 PM CDT
Moon 5:43 PM CDT (4/12) 5:21 AM CDT (4/12)
Length of Visible Light 13h 33m
Length of Day
12h 45m
Waxing Gibbous, 93% of the Moon is Illuminated
Apr 12
Waxing Gibbous
Apr 15
Full
Apr 22
Last Quarter
Apr 29
New
May 6
First Quarter

Hourly Weather History & Observations

Time (CDT) Temp. Heat Index Dew Point Humidity Pressure Visibility Wind Dir Wind Speed Gust Speed Precip Events Conditions
12:15 AM 71.6 °F - 67.5 °F 87% 29.99 in 10.0 mi SE 11.5 mph - N/A   Mostly Cloudy
12:35 AM 71.6 °F - 68.0 °F 88% 29.99 in 10.0 mi SE 13.8 mph - N/A   Mostly Cloudy
12:55 AM 71.4 °F - 68.2 °F 89% 29.98 in 10.0 mi SE 11.5 mph - N/A   Mostly Cloudy
1:15 AM 71.2 °F - 68.2 °F 90% 29.98 in 10.0 mi SSE 11.5 mph 20.7 mph N/A   Scattered Clouds
1:35 AM 71.1 °F - 68.2 °F 91% 29.97 in 10.0 mi SSE 11.5 mph - N/A   Scattered Clouds
1:55 AM 71.1 °F - 68.4 °F 91% 29.96 in 10.0 mi SE 13.8 mph - N/A   Mostly Cloudy
2:15 AM 71.6 °F - 68.4 °F 89% 29.96 in 10.0 mi SE 11.5 mph - N/A   Mostly Cloudy
2:35 AM 71.2 °F - 68.4 °F 91% 29.96 in 10.0 mi SSE 10.4 mph - N/A   Mostly Cloudy
2:55 AM 70.9 °F - 68.4 °F 92% 29.95 in 10.0 mi SSE 12.7 mph - N/A   Scattered Clouds
3:15 AM 70.7 °F - 68.4 °F 92% 29.95 in 10.0 mi SSE 9.2 mph - N/A   Scattered Clouds
3:35 AM 70.3 °F - 68.2 °F 93% 29.95 in 10.0 mi SSE 8.1 mph - N/A   Clear
3:55 AM 70.0 °F - 68.2 °F 94% 29.95 in 10.0 mi SSE 8.1 mph - N/A   Clear
4:15 AM 69.8 °F - 68.4 °F 95% 29.95 in 10.0 mi SE 8.1 mph - N/A   Mostly Cloudy
4:35 AM 69.8 °F - 68.4 °F 95% 29.94 in 10.0 mi SE 8.1 mph - N/A   Scattered Clouds
4:55 AM 69.3 °F - 68.2 °F 96% 29.94 in 7.0 mi SE 6.9 mph - N/A   Clear
5:15 AM 69.4 °F - 68.2 °F 96% 29.94 in 7.0 mi SE 8.1 mph - N/A   Clear
5:35 AM 69.3 °F - 68.2 °F 96% 29.94 in 7.0 mi SE 6.9 mph - N/A   Clear
5:55 AM 69.3 °F - 68.4 °F 97% 29.93 in 7.0 mi SE 9.2 mph - N/A   Clear
6:15 AM 69.6 °F - 68.7 °F 97% 29.93 in 10.0 mi SE 9.2 mph - N/A   Scattered Clouds
6:35 AM 69.8 °F - 68.5 °F 96% 29.94 in 10.0 mi SE 10.4 mph - N/A   Clear
6:55 AM 70.0 °F - 68.9 °F 96% 29.94 in 10.0 mi SE 9.2 mph - N/A   Mostly Cloudy
7:15 AM 70.0 °F - 68.9 °F 96% 29.94 in 7.0 mi SE 9.2 mph - N/A   Scattered Clouds
7:35 AM 70.2 °F - 69.1 °F 96% 29.95 in 7.0 mi SE 9.2 mph - N/A   Clear
7:55 AM 70.7 °F - 69.6 °F 96% 29.95 in 7.0 mi SSE 10.4 mph - N/A   Clear
8:15 AM 71.2 °F - 69.8 °F 95% 29.97 in 7.0 mi SSE 9.2 mph - N/A   Clear
8:35 AM 71.8 °F - 70.0 °F 94% 29.97 in 10.0 mi SSE 12.7 mph 17.3 mph N/A   Clear
8:55 AM 72.7 °F - 70.2 °F 92% 29.98 in 10.0 mi SSE 10.4 mph - N/A   Mostly Cloudy
9:15 AM 73.8 °F - 70.2 °F 88% 29.98 in 10.0 mi SSE 12.7 mph 19.6 mph N/A   Overcast
9:35 AM 75.0 °F - 68.7 °F 81% 29.99 in 10.0 mi SSE 16.1 mph - N/A   Overcast
9:55 AM 75.6 °F - 68.2 °F 78% 29.99 in 10.0 mi SSE 15.0 mph 21.9 mph N/A   Overcast
10:15 AM 76.5 °F - 68.0 °F 75% 29.99 in 10.0 mi SSE 18.4 mph 24.2 mph N/A   Mostly Cloudy
10:35 AM 78.1 °F - 68.0 °F 71% 29.99 in 10.0 mi SSE 15.0 mph 25.3 mph N/A   Mostly Cloudy
10:55 AM 79.5 °F - 68.0 °F 68% 29.99 in 10.0 mi SSE 17.3 mph 25.3 mph N/A   Scattered Clouds
11:15 AM 80.2 °F 82.8 °F 68.0 °F 66% 30.00 in 10.0 mi SSE 19.6 mph 26.5 mph N/A   Scattered Clouds
11:35 AM 80.8 °F 83.5 °F 67.8 °F 65% 29.99 in 10.0 mi SSE 19.6 mph 27.6 mph N/A   Scattered Clouds
11:55 AM 81.0 °F 83.4 °F 67.5 °F 63% 29.99 in 10.0 mi SSE 19.6 mph 28.8 mph N/A   Mostly Cloudy
12:15 PM 80.4 °F 82.8 °F 67.3 °F 64% 29.98 in 10.0 mi SSE 19.6 mph 27.6 mph N/A   Overcast
12:35 PM 81.3 °F 84.0 °F 67.5 °F 63% 29.97 in 10.0 mi SSE 18.4 mph 25.3 mph N/A   Mostly Cloudy
12:55 PM 82.2 °F 84.9 °F 67.5 °F 61% 29.97 in 10.0 mi SSE 21.9 mph 28.8 mph N/A   Clear
1:15 PM 81.9 °F 84.4 °F 67.3 °F 61% 29.97 in 10.0 mi SSE 23.0 mph 28.8 mph N/A   Clear
1:35 PM 82.4 °F 84.8 °F 66.9 °F 59% 29.97 in 10.0 mi SSE 21.9 mph 28.8 mph N/A   Scattered Clouds
1:55 PM 82.0 °F 84.5 °F 66.7 °F 60% 29.96 in 10.0 mi SSE 25.3 mph 32.2 mph N/A   Scattered Clouds
2:15 PM 81.9 °F 84.1 °F 66.4 °F 59% 29.95 in 10.0 mi SSE 23.0 mph 33.4 mph N/A   Clear
2:35 PM 82.0 °F 84.3 °F 66.6 °F 59% 29.93 in 10.0 mi SE 28.8 mph 33.4 mph N/A   Clear
2:55 PM 81.9 °F 84.1 °F 66.2 °F 59% 29.92 in 10.0 mi SE 27.6 mph 35.7 mph N/A   Clear
3:15 PM 81.9 °F 84.1 °F 66.2 °F 59% 29.91 in 10.0 mi SSE 28.8 mph 36.8 mph N/A   Clear
3:35 PM 81.7 °F 83.8 °F 66.2 °F 59% 29.91 in 10.0 mi SE 26.5 mph 36.8 mph N/A   Clear
3:55 PM 80.8 °F 82.9 °F 66.2 °F 61% 29.90 in 10.0 mi SSE 26.5 mph 34.5 mph N/A   Clear
4:15 PM 81.0 °F 83.3 °F 66.7 °F 62% 29.89 in 10.0 mi SE 27.6 mph 36.8 mph N/A   Clear
4:35 PM 80.6 °F 83.1 °F 67.3 °F 64% 29.88 in 10.0 mi SE 24.2 mph 36.8 mph N/A   Clear
4:55 PM 79.7 °F - 67.5 °F 66% 29.87 in 10.0 mi SE 28.8 mph 35.7 mph N/A   Clear
5:15 PM 79.3 °F - 67.3 °F 66% 29.88 in 10.0 mi SE 25.3 mph 32.2 mph N/A   Clear
5:35 PM 77.7 °F - 67.3 °F 70% 29.88 in 10.0 mi SSE 24.2 mph 33.4 mph N/A   Clear
5:55 PM 76.3 °F - 67.6 °F 74% 29.88 in 10.0 mi SE 24.2 mph 28.8 mph N/A   Scattered Clouds
6:15 PM 75.9 °F - 67.8 °F 76% 29.88 in 10.0 mi SE 20.7 mph 26.5 mph N/A   Scattered Clouds
6:35 PM 75.4 °F - 67.8 °F 77% 29.88 in 10.0 mi SE 20.7 mph 27.6 mph N/A   Scattered Clouds
6:55 PM 75.0 °F - 67.5 °F 77% 29.88 in 10.0 mi SE 17.3 mph 24.2 mph N/A   Scattered Clouds
7:15 PM 74.3 °F - 67.5 °F 79% 29.88 in 10.0 mi SE 19.6 mph 26.5 mph N/A   Scattered Clouds
7:35 PM 73.4 °F - 67.3 °F 81% 29.88 in 10.0 mi SSE 21.9 mph 27.6 mph N/A   Scattered Clouds
7:55 PM 72.9 °F - 67.3 °F 83% 29.88 in 10.0 mi SE 18.4 mph 25.3 mph N/A   Scattered Clouds
8:15 PM 72.5 °F - 67.1 °F 83% 29.88 in 10.0 mi SE 17.3 mph 21.9 mph N/A   Scattered Clouds
8:35 PM 72.1 °F - 67.1 °F 84% 29.89 in 10.0 mi SE 13.8 mph 23.0 mph N/A   Scattered Clouds
8:55 PM 71.8 °F - 67.6 °F 87% 29.89 in 10.0 mi SE 16.1 mph 20.7 mph N/A   Clear
9:15 PM 71.8 °F - 68.0 °F 88% 29.89 in 10.0 mi SE 16.1 mph 20.7 mph N/A   Clear
9:35 PM 71.8 °F - 68.5 °F 89% 29.90 in 10.0 mi SE 18.4 mph - N/A   Clear
9:55 PM 71.8 °F - 68.9 °F 91% 29.90 in 10.0 mi SE 17.3 mph 20.7 mph N/A   Clear
10:15 PM 71.6 °F - 68.9 °F 91% 29.90 in 10.0 mi SE 15.0 mph 19.6 mph N/A   Clear
10:35 PM 71.6 °F - 68.9 °F 91% 29.89 in 10.0 mi SE 17.3 mph 24.2 mph N/A   Clear
10:55 PM 71.8 °F - 69.3 °F 92% 29.89 in 10.0 mi SE 17.3 mph 20.7 mph N/A   Scattered Clouds
11:15 PM 71.8 °F - 69.4 °F 92% 29.89 in 10.0 mi SE 15.0 mph - N/A   Mostly Cloudy
11:35 PM 71.8 °F - 69.8 °F 93% 29.89 in 10.0 mi SE 17.3 mph - N/A   Mostly Cloudy
11:55 PM 71.8 °F - 70.0 °F 94% 29.89 in 10.0 mi SE 12.7 mph 19.6 mph N/A   Overcast